Regional Weather Roundup
Issued by NWS Bismarck, ND

Home | Current Version | Previous Version | Text Only | Print | Product List | Glossary On
Versions: 1 2 3 4 5 6 7 8 9 10 11 12 13 14 15 16 17 18 19 20 21 22 23 24 25 26 27 28 29 30 31 32 33 34 35 36 37 38 39 40 41 42 43 44 45 46 47 48 49 50
000
ASUS43 KBIS 280259
RWRBIS

NWR BROADCAST TEXT
NATIONAL WEATHER SERVICE BISMARCK ND
900 PM CST THU NOV 27 2014

NOTE: "FAIR" INDICATES FEW OR NO CLOUDS BELOW 12,000 FEET WITH NO
SIGNIFICANT WEATHER AND/OR OBSTRUCTIONS TO VISIBILITY.


CITY           SKY/WX    TMP DP  RH WIND       PRES   REMARKS
WILLISTON      PTCLDY    14  10  84 E7        29.83F WCI   4
MINOT          CLOUDY    11   7  84 E7        29.94S WCI   0
MINOT AFB      CLOUDY    10   7  85 SE15      29.95R WCI  -6
BISMARCK       CLOUDY    11   4  73 SE13      29.95F WCI  -4
DICKINSON      NOT AVBL
GARRISON         N/A     11   7  84 SE13      29.90F WCI  -4
HETTINGER ARPT CLEAR     22  18  85 S5        29.81F WCI  16
JAMESTOWN      LGT SNOW   6   2  83 E14       30.04F VSB 1   WCI -11
CARRINGTON     LGT SNOW   5   3  92 SE18      30.02F WCI -15
CROSBY         CLOUDY    16  10  79 SE14G20   29.88S WCI   1
$$

CITY           SKY/WX    TMP DP  RH WIND       PRES   REMARKS
GRAND FORKS    LGT SNOW   7   2  80 S12       30.18F WCI  -8
GRAND FORKS AF LGT SNOW   7   1  78 S9        30.17F WCI  -7
DEVILS LAKE    CLOUDY     7  -4  61 SE12G20   30.04F WCI  -9
FARGO          LGT SNOW   9   2  73 SE8       30.20R WCI  -3
GRAFTON        CLOUDY     5   1  85 S13       30.16F FOG     WCI -12
$$

CITY           SKY/WX    TMP DP  RH WIND       PRES   REMARKS
ABERDEEN       CLOUDY    17   9  70 S15       30.03F WCI   2
MOBRIDGE       MOCLDY    17  12  80 SE10      29.90F WCI   5
BUFFALO          N/A     26  21  81 CALM      29.74F
RAPID CITY     CLEAR     28  24  85 CALM      29.87S
GLASGOW        PTCLDY    24  21  88 E8        29.75R WCI  15
SIDNEY         PTCLDY    21  18  86 N10       29.81R WCI  10
WOLF POINT     CLOUDY    22  19  89 NE10      29.79F WCI  11
GLENDIVE       MOCLDY    30  28  93 CALM      29.76S
MILES CITY     PTCLDY    41  33  73 SW8       29.76F
BAKER          CLOUDY    38  31  76 CALM      29.78F
$$

CITY           SKY/WX    TMP DP  RH WIND       PRES   REMARKS
BILLINGS       CLOUDY    49  29  46 SW22      29.79F
GREAT FALLS    CLEAR     43  35  73 SW10      29.69F
$$




USA.gov is the U.S. government's official web portal to all federal, state and local government web resources and services.